TimeEDT,TemperatureF,Dew PointF,Humidity,Sea Level PressureIn,VisibilityMPH,Wind Direction,Wind SpeedMPH,Gust SpeedMPH,PrecipitationIn,Events,Conditions,WindDirDegrees,DateUTC
12:14 AM,59.0,57.2,94,29.74,0.2,SE,3.5,-,N/A,Fog,Fog,130,2013-06-30 04:14:00
12:19 AM,60.8,57.2,88,29.75,1.2,Calm,Calm,-,N/A,,Partly Cloudy,0,2013-06-30 04:19:00
12:26 AM,59.0,57.2,94,29.74,2.5,East,3.5,-,N/A,,Partly Cloudy,100,2013-06-30 04:26:00
12:36 AM,59.0,57.2,94,29.74,5.0,East,3.5,-,N/A,,Clear,100,2013-06-30 04:36:00
12:44 AM,60.8,57.2,88,29.74,4.0,Calm,Calm,-,N/A,,Partly Cloudy,0,2013-06-30 04:44:00
12:51 AM,59.0,57.2,94,29.75,1.8,Calm,Calm,-,N/A,,Partly Cloudy,0,2013-06-30 04:51:00
12:56 AM,60.1,57.0,90,29.72,1.5,Calm,Calm,-,N/A,,Partly Cloudy,0,2013-06-30 04:56:00
1:02 AM,60.8,57.2,88,29.74,0.8,East,3.5,-,N/A,,Mist,90,2013-06-30 05:02:00
1:13 AM,59.0,57.2,94,29.74,0.2,ESE,3.5,-,N/A,Fog,Fog,120,2013-06-30 05:13:00
1:20 AM,60.8,57.2,88,29.74,1.0,East,3.5,-,N/A,,Mist,100,2013-06-30 05:20:00
1:23 AM,60.8,57.2,88,29.74,2.5,ESE,3.5,-,N/A,,Scattered Clouds,110,2013-06-30 05:23:00
1:30 AM,60.8,57.2,88,29.74,10.0,ESE,4.6,-,N/A,,Partly Cloudy,120,2013-06-30 05:30:00
1:56 AM,60.1,57.0,90,29.72,10.0,Calm,Calm,-,N/A,,Clear,0,2013-06-30 05:56:00
2:42 AM,59.0,57.2,94,29.75,1.8,Calm,Calm,-,N/A,,Clear,0,2013-06-30 06:42:00
2:52 AM,59.0,57.2,94,29.75,0.5,East,4.6,-,N/A,Fog,Fog,80,2013-06-30 06:52:00
2:56 AM,57.9,55.9,93,29.73,0.2,East,4.6,-,N/A,Fog,Fog,80,2013-06-30 06:56:00
3:04 AM,57.2,55.4,94,29.75,0.2,East,3.5,-,N/A,Fog,Fog,100,2013-06-30 07:04:00
3:38 AM,59.0,55.4,88,29.75,0.8,ENE,3.5,-,N/A,,Mist,60,2013-06-30 07:38:00
3:45 AM,57.2,55.4,94,29.75,0.2,Calm,Calm,-,N/A,Fog,Fog,0,2013-06-30 07:45:00
3:56 AM,57.9,55.9,93,29.72,0.8,North,3.5,-,N/A,,Mist,10,2013-06-30 07:56:00
4:05 AM,57.2,55.4,94,29.75,1.0,Calm,Calm,-,N/A,,Mist,0,2013-06-30 08:05:00
4:12 AM,57.2,55.4,94,29.75,0.8,Calm,Calm,-,N/A,,Mist,0,2013-06-30 08:12:00
4:17 AM,57.2,55.4,94,29.75,1.2,Calm,Calm,-,N/A,,Partly Cloudy,0,2013-06-30 08:17:00
4:25 AM,57.2,55.4,94,29.76,3.0,Calm,Calm,-,N/A,,Partly Cloudy,0,2013-06-30 08:25:00
4:33 AM,57.2,55.4,94,29.76,2.5,ESE,3.5,-,N/A,,Clear,110,2013-06-30 08:33:00
4:42 AM,57.2,55.4,94,29.76,4.0,East,3.5,-,N/A,,Clear,80,2013-06-30 08:42:00
4:45 AM,57.2,55.4,94,29.76,1.2,ENE,3.5,-,N/A,,Partly Cloudy,70,2013-06-30 08:45:00
4:52 AM,57.2,55.4,94,29.76,0.2,Calm,Calm,-,N/A,Fog,Fog,0,2013-06-30 08:52:00
4:56 AM,57.9,55.0,90,29.73,0.5,Calm,Calm,-,N/A,Fog,Fog,0,2013-06-30 08:56:00
5:03 AM,57.2,55.4,94,29.76,1.2,Calm,Calm,-,N/A,,Partly Cloudy,0,2013-06-30 09:03:00
5:11 AM,57.2,55.4,94,29.76,3.0,NNE,3.5,-,N/A,,Partly Cloudy,20,2013-06-30 09:11:00
5:26 AM,57.2,55.4,94,29.77,1.8,Calm,Calm,-,N/A,,Clear,0,2013-06-30 09:26:00
5:41 AM,57.2,55.4,94,29.77,0.5,East,3.5,-,N/A,Fog,Fog,80,2013-06-30 09:41:00
5:50 AM,57.2,55.4,94,29.77,0.2,ENE,3.5,-,N/A,Fog,Fog,60,2013-06-30 09:50:00
5:56 AM,57.0,55.0,93,29.75,0.2,East,4.6,-,N/A,Fog,Fog,80,2013-06-30 09:56:00
6:10 AM,57.2,55.4,94,29.78,1.2,ESE,3.5,-,N/A,,Partly Cloudy,110,2013-06-30 10:10:00
6:14 AM,57.2,55.4,94,29.79,3.0,ESE,3.5,-,N/A,,Partly Cloudy,110,2013-06-30 10:14:00
6:40 AM,59.0,57.2,94,29.80,1.5,ESE,4.6,-,N/A,,Clear,110,2013-06-30 10:40:00
6:45 AM,57.2,55.4,94,29.80,0.2,ESE,5.8,-,N/A,Fog,Fog,110,2013-06-30 10:45:00
6:56 AM,57.9,55.9,93,29.78,0.2,East,4.6,-,N/A,Fog,Fog,100,2013-06-30 10:56:00
7:13 AM,60.8,57.2,88,29.80,1.0,East,3.5,-,N/A,,Mist,90,2013-06-30 11:13:00
7:20 AM,60.8,57.2,88,29.80,1.2,East,3.5,-,N/A,,Scattered Clouds,90,2013-06-30 11:20:00
7:29 AM,60.8,59.0,94,29.81,3.0,Calm,Calm,-,N/A,,Partly Cloudy,0,2013-06-30 11:29:00
7:56 AM,63.0,60.1,90,29.79,7.0,ESE,4.6,-,N/A,,Clear,120,2013-06-30 11:56:00
8:56 AM,68.0,63.0,84,29.79,10.0,Calm,Calm,-,N/A,,Clear,0,2013-06-30 12:56:00
9:56 AM,72.0,64.0,76,29.80,10.0,Variable,3.5,-,N/A,,Mostly Cloudy,0,2013-06-30 13:56:00
10:56 AM,73.9,64.0,71,29.80,10.0,Calm,Calm,-,N/A,,Scattered Clouds,0,2013-06-30 14:56:00
11:56 AM,75.9,63.0,64,29.80,10.0,WSW,3.5,-,N/A,,Scattered Clouds,250,2013-06-30 15:56:00
12:56 PM,78.1,64.0,62,29.80,10.0,SW,3.5,-,N/A,,Mostly Cloudy,220,2013-06-30 16:56:00
1:56 PM,78.1,63.0,60,29.79,10.0,Calm,Calm,-,N/A,,Mostly Cloudy,0,2013-06-30 17:56:00
2:56 PM,79.0,60.1,52,29.78,10.0,Calm,Calm,-,N/A,Thunderstorm,Thunderstorm,0,2013-06-30 18:56:00
3:16 PM,69.8,64.4,83,29.85,1.2,WSW,21.9,34.5,0.00,Rain-Thunderstorm,Thunderstorms and Rain,240,2013-06-30 19:16:00
3:22 PM,64.4,60.8,88,29.86,0.2,South,13.8,32.2,N/A,Fog-Rain-Thunderstorm,Heavy Thunderstorms and Rain,190,2013-06-30 19:22:00
3:31 PM,66.2,62.6,88,29.84,0.5,NW,4.6,16.1,N/A,Rain-Thunderstorm,Light Thunderstorms and Rain,320,2013-06-30 19:31:00
3:34 PM,68.0,62.6,83,29.84,1.0,Calm,Calm,-,N/A,Rain-Thunderstorm,Light Thunderstorms and Rain,0,2013-06-30 19:34:00
3:41 PM,69.8,62.6,78,29.82,10.0,North,5.8,-,N/A,Thunderstorm,Thunderstorm,350,2013-06-30 19:41:00
3:56 PM,72.0,61.0,68,29.80,10.0,Calm,Calm,-,N/A,Thunderstorm,Partly Cloudy,0,2013-06-30 19:56:00
4:12 PM,71.6,64.4,78,29.82,10.0,Calm,Calm,-,N/A,,Clear,0,2013-06-30 20:12:00
4:56 PM,71.1,66.0,84,29.82,10.0,Calm,Calm,-,N/A,,Mostly Cloudy,0,2013-06-30 20:56:00
5:56 PM,72.0,66.9,84,29.82,9.0,Calm,Calm,-,N/A,,Overcast,0,2013-06-30 21:56:00
6:14 PM,71.6,66.2,83,29.86,8.0,SE,5.8,-,N/A,,Mostly Cloudy,140,2013-06-30 22:14:00
6:56 PM,73.9,66.0,76,29.83,10.0,East,3.5,-,N/A,,Clear,90,2013-06-30 22:56:00
7:56 PM,72.0,64.9,78,29.84,10.0,NNE,5.8,-,N/A,,Clear,30,2013-06-30 23:56:00
8:56 PM,68.0,63.0,84,29.85,10.0,Calm,Calm,-,N/A,,Clear,0,2013-07-01 00:56:00
9:56 PM,66.9,63.0,87,29.86,6.0,East,4.6,-,N/A,,Partly Cloudy,90,2013-07-01 01:56:00
10:56 PM,66.9,63.0,87,29.88,8.0,East,4.6,-,N/A,,Clear,80,2013-07-01 02:56:00
11:56 PM,66.0,62.1,87,29.88,9.0,East,4.6,-,N/A,,Mostly Cloudy,90,2013-07-01 03:56:00